NOAA 16 DEB

Satellite information

Favourite Embed

Satellite Type and Status

DEBRISIN ORBIT

Key statistics

Satellite NOAA 16 DEB at a glance.

Uptime

8997

Days in orbit

Revolutions

≈ 14.1

Per day

Orbit

SSO

Sun Synchronous Orbit

Inclination

98.8

Latest

Satellite identification and parameters

Extended collection of information and parameters for NOAA 16 DEB.

Object identification

Identified? True

Debris? True

Object name: NOAA 16 DEB

International designator: 2000-055FP

Object number (NORAD): 41263

Object ID (CCSDS): 41263

Country: UNITED STATES OF AMERICA (US)

Current information (Y/N): Y

RCS size: SMALL

Orbital parameters

Period: 101.95 minutes

Inclination: 98.8483 deg

SMA: 7229.111 km

Apoapsis: 903.787 km

Periapsis: 798.165 km

RAAN: 148.0394 deg

Eccentricy: 0.0073053

Argument of periapsis: 131.3329 deg

Mean anomaly: 229.4159 deg

Mean motion: 14.12457648 rev/day

Mean motion (dot): 0.00005594 rev/day2

B* drag term: 0.0029756 1/REarth

Two-line elements (TLE)

Creation date: May 9, 2025, 2:46 a.m.

Reference frame: TEME

Reference center: EARTH

Epoch: May 8, 2025, 6:54 a.m. UTC

TLE line 0: 0 NOAA 16 DEB

TLE line 1: 1 41263U 00055FP 25128.28805444 .00005594 00000-0 29756-2 0 9993

TLE line 2: 2 41263 98.8483 148.0394 0073053 131.3329 229.4159 14.12457648478381

Live tracking on map

Real-time ground track for satellite NOAA 16 DEB.

In-orbit conjunctions

A list of the most updated potential collisions computed for object NOAA 16 DEB.

Target Orbit TCA Probability of collision Miss distance Type
CZ-6A DEB LEO 2025-02-04 17:37:34 0.0001633786 668.0 (m) DEBRIS
COSMOS 2082 LEO 2024-08-23 05:47:07 0.0001662313 663.0 (m) PAYLOAD

Associated space launch

The NOAA K, L and M POES satellites begin the fifth generation of improved environmental monitoring in support of NOAA missions. The instrument payload has significant improvements and additions/deletions. The instrument changes have effected the spacecraft subsystems and data formats.

NOAA 16 DEB was lifted into orbit during the mission ‘Titan II SLV | NOAA 16’, on board a Titan II SLV space rocket.

The launch took place on Sept. 21, 2000, 10:22 a.m. from Space Launch Complex 4W.

For more information about the launch, click the button.

Launch to space Titan II SLV | NOAA 16
Titan II SLV | NOAA 16

Agency: N/A

Status: Launch Successful

Launch date: Sept. 21, 2000, 10:22 a.m. UTC

Rocket: Titan II SLV

Launch pad: Space Launch Complex 4W

Location: Vandenberg SFB, CA, USA

...

Latest news about this satellite

There are no fresh news available about this satellite. Check back as we update our databases every day.


Newsletter sign-up

Weekly statistics, charts and insights to help you stay on top of the space industry.